Location: Bocianicha
(51.5066°N, 19.2563°E)
Time: 13:07:56
(UTC+00:00)

Resurs 1-4 Rocket - Pass Details

Date: 15 June 2025
Orbit: 798 x 812 km, 98.8° (Epoch: 17 July)

Event Time Altitude Azimuth Distance (km) Brightness Sun altitude
Rises 00:00:53 0° 24° (NNE) 3,320 7.3 -13.3°
Reaches altitude 10° 00:03:42 10° 39° (NE) 2,386 5.8 -13.1°
Maximum altitude 00:07:52 23° 91° (E) 1,636 3.9 -12.9°
Drops below altitude 10° 00:12:02 10° 144° (SE) 2,377 4.2 -12.7°
Enters shadow 00:13:29 - 153° (SSE) 2,846 4.6 -12.6°
